FW6327 Weather Reports


Display with metric or nautical units.
time (UTC)temp
F
wind
direction
speed
MPH
gust
MPH
rain 1hr
in
rain 24hr
in
rain mn
in
humidity
%
barometer
mb
20260507231502 51 182 3.0 7.0 0.00 0.85 0.85 92 999.9
20260507230003 52 190 1.0 3.0 0.00 0.85 0.85 92 999.9
20260507224504 52 190 0.0 2.0 0.00 0.85 0.85 92 999.9
20260507223100 52 190 0.0 0.0 0.00 0.85 0.85 92 1000.0
20260507221557 52 190 0.0 3.0 0.00 0.85 0.85 92 999.9
20260507220055 52 190 1.0 5.0 0.00 0.85 0.85 92 1000.0
20260507214554 53 161 1.0 3.0 0.00 0.85 0.85 92 1000.1
20260507213053 53 161 0.0 3.0 0.01 0.85 0.85 92 1000.0
20260507211550 52 161 1.0 5.0 0.01 0.85 0.85 92 1000.3
20260507210049 52 186 1.0 8.0 0.01 0.85 0.85 92 1000.3
20260507204552 52 211 0.0 6.0 0.02 0.84 0.84 92 999.9
20260507203047 52 241 3.0 6.0 0.08 0.84 0.84 93 999.9
20260507201544 51 225 0.0 2.0 0.13 0.84 0.84 93 999.6
20260507200038 51 225 0.0 2.0 0.16 0.84 0.84 93 1000.1
20260507194535 51 225 0.0 2.0 0.19 0.82 0.82 92 1000.5
20260507193031 51 226 0.0 3.0 0.20 0.76 0.76 92 1001.7
20260507191528 51 220 2.0 4.0 0.24 0.72 0.72 92 1002.2
20260507190027 51 233 0.0 6.0 0.28 0.69 0.69 91 1002.1
20260507184525 51 215 2.0 7.0 0.35 0.63 0.63 91 1002.5
20260507183026 51 237 2.0 8.0 0.47 0.56 0.56 91 1002.6
20260507181521 51 218 4.0 8.0 0.43 0.48 0.48 91 1002.8
20260507180018 52 210 7.0 15.0 0.38 0.39 0.39 90 1003.2
20260507174615 52 223 7.0 14.0 0.28 0.28 0.28 90 1003.2
20260507173025 53 219 7.0 11.0 0.08 0.08 0.08 90 1002.5
20260507171508 54 180 7.0 16.0 0.05 0.05 0.05 89 1002.4
20260507170003 54 228 8.0 18.0 0.02 0.02 0.02 88 1002.7
20260507164600 55 246 7.0 14.0 0.00 0.00 0.00 87 1002.6
20260507163115 56 211 8.0 16.0 0.00 0.00 0.00 86 1003.3
20260507161555 56 210 10.0 15.0 0.00 0.00 0.00 85 1003.4
20260507160054 56 204 6.0 12.0 0.00 0.00 0.00 85 1004.1
20260507154649 56 178 7.0 20.0 0.00 0.00 0.00 85 1004.4
20260507153044 57 225 8.0 16.0 0.00 0.00 0.00 85 1004.6
20260507151543 57 232 10.0 23.0 0.00 0.00 0.00 85 1005.0
20260507150036 57 230 11.0 21.0 0.00 0.00 0.00 85 1005.3
20260507144549 57 275 10.0 21.0 0.00 0.00 0.00 85 1005.2
20260507143030 57 200 10.0 18.0 0.00 0.00 0.00 85 1005.8
20260507141527 57 236 9.0 14.0 0.00 0.00 0.00 85 1006.0
20260507140024 57 171 11.0 20.0 0.00 0.00 0.00 85 1006.0
20260507134522 57 203 9.0 15.0 0.00 0.00 0.00 85 1006.1
20260507133019 56 217 8.0 19.0 0.00 0.00 0.00 86 1006.2
20260507131516 56 240 9.0 16.0 0.00 0.00 0.00 87 1006.6
20260507130013 56 216 9.0 21.0 0.00 0.00 0.00 86 1006.8
20260507124613 56 164 9.0 19.0 0.00 0.00 0.00 86 1007.0
20260507123010 57 228 4.0 15.0 0.00 0.00 0.00 86 1006.9
20260507121505 57 249 5.0 22.0 0.00 0.00 0.00 87 1006.8
20260507120002 56 174 8.0 24.0 0.00 0.00 0.00 87 1006.9
20260507114601 56 234 8.0 17.0 0.00 0.00 0.00 88 1007.0
20260507113057 56 214 5.0 14.0 0.00 0.00 0.00 87 1007.5
20260507111554 56 188 6.0 16.0 0.00 0.00 0.00 87 1008.2
20260507110054 56 169 7.0 17.0 0.00 0.00 0.00 87 1008.1
20260507104555 56 226 8.0 15.0 0.00 0.00 0.00 87 1007.7
20260507103045 55 208 5.0 11.0 0.00 0.00 0.00 88 1007.9
20260507101548 55 240 8.0 16.0 0.00 0.00 0.00 88 1008.2
20260507100043 55 217 12.0 18.0 0.00 0.00 0.00 88 1008.7
20260507094544 55 211 6.0 17.0 0.00 0.00 0.00 88 1008.3
20260507093037 54 215 8.0 17.0 0.00 0.00 0.00 88 1008.8
20260507091532 55 238 7.0 18.0 0.00 0.00 0.00 88 1008.7
20260507090034 55 246 10.0 17.0 0.00 0.00 0.00 88 1009.1
20260507084531 54 236 8.0 14.0 0.00 0.00 0.00 89 1009.0
20260507083023 54 198 4.0 9.0 0.00 0.00 0.00 88 1009.1
20260507081524 54 219 3.0 5.0 0.00 0.00 0.00 88 1008.9
20260507080016 54 183 1.0 9.0 0.00 0.00 0.00 88 1009.3
20260507074512 54 252 6.0 13.0 0.00 0.00 0.00 88 1009.9
20260507073009 53 252 4.0 11.0 0.00 0.00 0.00 89 1010.1
20260507071504 52 207 4.0 8.0 0.00 0.00 0.00 89 1010.7
20260507070002 51 191 2.0 5.0 0.00 0.00 0.00 88 1010.8
20260507064558 51 192 4.0 6.0 0.00 0.00 0.00 88 1011.0
20260507063056 51 201 2.0 4.0 0.00 0.00 0.00 87 1010.8
20260507061551 52 223 2.0 4.0 0.00 0.00 0.00 86 1011.1
20260507060055 52 200 3.0 6.0 0.00 0.00 0.00 86 1011.2
20260507054549 52 221 2.0 6.0 0.00 0.00 0.00 86 1011.6
20260507053042 52 245 4.0 7.0 0.00 0.00 0.00 85 1012.1
20260507051539 53 218 5.0 9.0 0.00 0.00 0.00 85 1012.4
20260507050034 52 217 4.0 6.0 0.00 0.00 0.00 85 1012.9
20260507044546 52 236 4.0 6.0 0.00 0.00 0.00 85 1013.1
20260507043026 52 232 3.0 6.0 0.00 0.00 0.00 86 1013.4
20260507041521 52 240 3.0 7.0 0.00 0.00 0.00 86 1014.0
20260507040019 52 232 3.0 7.0 0.00 0.00 0.00 86 1014.3
20260507034516 52 233 3.0 6.0 0.00 0.00 0.00 86 1014.5
20260507033011 52 220 2.0 5.0 0.00 0.00 0.00 86 1014.6
20260507031506 53 230 3.0 5.0 0.00 0.00 0.00 85 1014.8
20260507030106 53 229 2.0 5.0 0.00 0.00 0.00 85 1015.1
20260507024601 54 219 2.0 6.0 0.00 0.00 0.00 84 1015.3
20260507023058 54 236 4.0 6.0 0.00 0.00 0.00 83 1015.4
20260507021558 55 240 4.0 8.0 0.00 0.00 0.00 83 1015.6
20260507020054 54 228 4.0 7.0 0.00 0.00 0.00 84 1015.6
20260507014554 55 231 3.0 8.0 0.00 0.00 0.00 82 1015.6
20260507013058 55 205 2.0 8.0 0.00 0.00 0.00 82 1015.7
20260507011548 56 205 3.0 8.0 0.00 0.00 0.00 80 1015.8
20260507010047 56 209 3.0 6.0 0.00 0.00 0.00 79 1015.8
20260507004545 57 223 3.0 6.0 0.00 0.00 0.00 79 1016.2
20260507003044 57 209 4.0 8.0 0.00 0.00 0.00 78 1015.9
20260507001541 57 225 1.0 8.0 0.00 0.00 0.00 78 1015.9
20260507000038 57 215 4.0 8.0 0.00 0.00 0.00 78 1015.9
20260506234534 58 192 4.0 12.0 0.00 0.00 0.00 77 1015.5
20260506233030 59 181 5.0 15.0 0.00 0.00 0.00 75 1015.3